San Diego Montgomery, CA

3:23 AM PST on February 18, 2018 (GMT -0800)
Montgomery

Weather History for KMYF - August, 2014

Change the Weather History Date:

Friday, August 8, 2014

  Actual Average Record
Temperature  
Mean Temperature 72 °F 73 °F  
Max Temperature 77 °F 81 °F 87 °F (2003)
Min Temperature 68 °F 65 °F 59 °F (2002)
Degree Days  
Heating Degree Days 0 0  
Month to date heating degree days 0  
Since 1 June heating degree days 20  
Since 1 July heating degree days 1  
Cooling Degree Days 6 8  
Month to date cooling degree days 62  
Year to date cooling degree days 373  
Since 1 June cooling degree days 322  
Growing Degree Days 22 (Base 50)    
Moisture  
Dew Point 61 °F    
Average Humidity 71    
Maximum Humidity 78    
Minimum Humidity 58    
Precipitation  
Precipitation 0.00 in 0.00 in 0.00 in (2018)
Month to date precipitation 0.00  
Year to date precipitation 8.41  
Sea Level Pressure  
Sea Level Pressure 29.93 in    
Wind  
Wind Speed 4 mph (West)    
Max Wind Speed 10 mph    
Max Gust Speed -    
Visibility 10 miles    
Events      
T = Trace of Precipitation, MM = Missing Value Source: NWS Daily Summary

Daily Weather History Graph

Daily Weather History Graph

Search for Another Location

Airport or City:

Trip Planner

Search our weather history database for the weather conditions in past years. The results will help you decide how hot, cold, wet, or windy it might be!

Date:

Astronomy

Aug. 08, 2014 Rise Set
Actual Time 6:07 AM PDT 7:40 PM PDT
Civil Twilight 5:40 AM PDT 8:07 PM PDT
Nautical Twilight 5:08 AM PDT 8:38 PM PDT
Astronomical Twilight 4:35 AM PDT 9:11 PM PDT
Moon 5:55 PM PDT (8/8) 3:46 AM PDT (8/8)
Length of Visible Light 14h 26m
Length of Day
13h 33m
Waxing Gibbous, 94% of the Moon is Illuminated
Aug 8
Waxing Gibbous
Aug 10
Full
Aug 17
Last Quarter
Aug 25
New
Sep 2
First Quarter

Hourly Weather History & Observations

Time (PDT) Temp. Dew Point Humidity Pressure Visibility Wind Dir Wind Speed Gust Speed Precip Events Conditions
12:14 AM 68.0 °F 60.8 °F 78% 29.96 in 10.0 mi Calm Calm - N/A   Mostly Cloudy
12:53 AM 69.1 °F 60.1 °F 73% 29.94 in 10.0 mi Calm Calm - N/A   Overcast
1:53 AM 68.0 °F 60.1 °F 76% 29.94 in 10.0 mi South 3.5 mph - N/A   Overcast
2:53 AM 68.0 °F 60.1 °F 76% 29.93 in 10.0 mi ENE 3.5 mph - N/A   Overcast
3:53 AM 68.0 °F 60.1 °F 76% 29.92 in 10.0 mi ENE 3.5 mph - N/A   Overcast
4:53 AM 68.0 °F 60.1 °F 76% 29.91 in 10.0 mi Calm Calm - N/A   Overcast
5:53 AM 68.0 °F 60.1 °F 76% 29.92 in 10.0 mi North 4.6 mph - N/A   Overcast
6:53 AM 68.0 °F 60.1 °F 76% 29.93 in 10.0 mi NNW 3.5 mph - N/A   Overcast
7:53 AM 68.0 °F 60.1 °F 76% 29.94 in 10.0 mi North 3.5 mph - N/A   Overcast
8:53 AM 69.1 °F 60.1 °F 73% 29.95 in 10.0 mi Calm Calm - N/A   Overcast
9:53 AM 71.1 °F 60.1 °F 68% 29.94 in 10.0 mi West 4.6 mph - N/A   Overcast
10:53 AM 73.0 °F 60.1 °F 64% 29.95 in 10.0 mi SSW 4.6 mph - N/A   Overcast
11:53 AM 75.0 °F 61.0 °F 62% 29.94 in 10.0 mi WSW 8.1 mph - N/A   Scattered Clouds
12:53 PM 75.9 °F 61.0 °F 60% 29.94 in 10.0 mi WSW 9.2 mph - N/A   Scattered Clouds
1:53 PM 73.9 °F 61.0 °F 64% 29.93 in 10.0 mi SW 10.4 mph - N/A   Scattered Clouds
2:53 PM 75.9 °F 60.1 °F 58% 29.91 in 10.0 mi Variable 6.9 mph - N/A   Partly Cloudy
3:53 PM 75.0 °F 60.1 °F 60% 29.90 in 10.0 mi West 6.9 mph - N/A   Partly Cloudy
4:53 PM 75.0 °F 60.1 °F 60% 29.89 in 10.0 mi SW 8.1 mph - N/A   Partly Cloudy
5:53 PM 73.0 °F 61.0 °F 66% 29.89 in 10.0 mi SW 10.4 mph - N/A   Clear
6:53 PM 71.1 °F 61.0 °F 70% 29.90 in 10.0 mi WSW 9.2 mph - N/A   Partly Cloudy
7:53 PM 70.0 °F 61.0 °F 73% 29.91 in 10.0 mi West 5.8 mph - N/A   Scattered Clouds
8:33 PM 69.8 °F 60.8 °F 73% 29.93 in 10.0 mi WNW 5.8 mph - N/A   Mostly Cloudy
8:53 PM 69.1 °F 61.0 °F 75% 29.92 in 10.0 mi WSW 3.5 mph - N/A   Overcast
9:53 PM 69.1 °F 61.0 °F 75% 29.94 in 10.0 mi Calm Calm - N/A   Scattered Clouds
10:30 PM 69.8 °F 60.8 °F 73% 29.95 in 10.0 mi WSW 4.6 mph - N/A   Mostly Cloudy
10:53 PM 69.1 °F 61.0 °F 75% 29.94 in 10.0 mi WSW 3.5 mph - N/A   Mostly Cloudy
11:53 PM 69.1 °F 61.0 °F 75% 29.95 in 10.0 mi West 4.6 mph - N/A   Overcast